Regional Weather Roundup
Issued by NWS Pendleton, OR

Home | Current Version | Previous Version | Text Only | Print | Product List | Glossary On
Versions: 1 2 3 4 5 6 7 8 9 10 11 12 13 14 15 16 17 18 19 20 21 22 23 24 25 26 27 28 29 30 31 32 33 34 35 36 37 38 39 40 41 42 43 44 45 46 47 48 49 50
000
ASUS46 KPDT 221010
RWRPDT
PENDLETON REGIONAL WEATHER ROUNDUP
NATIONAL WEATHER SERVICE PENDLETON OREGON
300 AM PDT FRI SEP 22 2017

NOTE: FAIR INDICATES FEW OR NO CLOUDS BELOW 12,000 FEET WITH NO
SIGNIFICANT WEATHER AND/OR OBSTRUCTIONS TO VISIBILITY.

# INDICATES UNOFFICIAL STATION AND DATA

WAZ520-221110-
EAST SLOPES OF WASHINGTON CASCADES

CITY            SKY/WX      TMP DP  RH  WIND    PRES   REMARKS
#BULLFROG       N/A         42  40  93  CALM    N/A
#CLE ELUM HS    N/A         44  40  86  CALM    29.92F
#CLE ELUM LAKE  N/A         43  39  86  CALM    29.95F
#EASTON DOT     N/A         43  41  93  CALM    N/A
#ELK HTS DOT    N/A         43  43  100 CALM    N/A
#GLENWOOD       N/A         40  39  96  CALM    29.99S
#NELSON 3SW     N/A         40  38  92  CALM    30.17F
#NILE           N/A         37  36  96  CALM    29.28S
#TEANAWAY 4NE   N/A         40  39  96  N2      N/A
#TROUT LAKE 1NE N/A         41  40  96  CALM    29.98F
#TROUT LAKE 1E  N/A         42  40  93  CALM    30.00F
$$

WAZ521-221110-
SIMCOE HIGHLANDS

CITY            SKY/WX      TMP DP  RH  WIND    PRES   REMARKS
#BICKLETON HS   N/A         45  40  82  N7      29.90F
#SATUS PASS DOT N/A         41  35  79  NE1     N/A
#CENTERVILLE 1SWN/A         44  39  82  CALM    29.93R
#GOLDENDALE 1NE N/A         46  41  83  CALM    N/A
#GOLDENDALE 4W  N/A         45  39  79  CALM    30.00S
#GOODNOE HILLS  N/A         49  46  89  W5      N/A
#LYLE 6NE       N/A         46  45  96  S1      29.97F
#PITT 4SE       N/A         43  42  96  CALM    30.01S
$$

WAZ026-221110-
KITTITAS VALLEY

CITY            SKY/WX      TMP DP  RH  WIND    PRES   REMARKS
ELLENSBURG AP   PTCLDY      39  35  85  E5      29.96F
#ELLENSBURG CWU N/A         43  38  82  CALM    29.91S
#ELLENSBURG 3NE N/A         39  37  92  CALM    28.05S
#ELLENSBURG 1E  N/A         39  37  92  CALM    29.99F
#KITTITAS 3S    N/A         36  34  92  CALM    29.96F
#MANASTASH RDG  N/A         45  44  96  NW7     N/A
#ROCKY CYN DOT  N/A         45  43  93  W8      N/A
#RYEGRASS DOT   N/A         44  40  86  W2      N/A
$$

WAZ027-221110-
YAKIMA VALLEY

CITY            SKY/WX      TMP DP  RH  WIND    PRES   REMARKS
SUNNYSIDE AP    PTCLDY      46  44  93  SE3     29.96F
YAKIMA AIRPORT  MOCLDY      48  43  83  CALM    29.97F
YAKIMA-VAGABOND MOCLDY      44  39  82  CALM    29.95S
#DONALD 2NE     N/A         50  30  46  NW1     29.96S
#GRANDVIEW      N/A         48  43  83  CALM    29.98S
#MABTON         N/A         50  44  80  CALM    29.96S
#MOXEE 2E       N/A         48  N/A N/A CALM    29.93S
#NACHES 2SW     N/A         48  42  80  W7      29.97S
#OUTLOOK DOT    N/A         50  45  83  CALM    29.92F
#PARKER DOT     N/A         52  42  69  SE6     29.95S
#TERRACE HTS    N/A         46  43  89  CALM    29.94S
#TOPPENISH      N/A         51  44  77  CALM    29.89S
#I82 S UMTANUM RN/A         47  40  76  E2      N/A
#UNION GAP DOT  N/A         49  43  80  N2      29.99F
#W YAKIMA       N/A         47  41  79  CALM    29.97S
#WHITE SWAN 5E  N/A         44  41  89  CALM    29.98S
#WILEY CITY 3W  N/A         47  37  68  CALM    29.93F
#ZILLAH DOT     N/A         51  44  77  SW2     N/A
$$

WAZ028-221110-
LOWER COLUMBIA BASIN...WASHINGTON

CITY            SKY/WX      TMP DP  RH  WIND    PRES   REMARKS
PASCO           MOCLDY      43  42  96  NW5     29.97S
PROSSER AWOS    N/A         48  45  89  CALM    30.00S
RICHLAND AWOS   MOCLDY      46  45  96  SW3     29.98S
#BENTON CITY    N/A         47  44  89  CALM    29.88S
#CONNELL 5N     N/A         42  40  93  N3      29.97S
#CONNELL 5NW    N/A         42  39  89  CALM    29.92S
#ELTOPIA 6NW    N/A         46  44  93  CALM    28.93S
#KAHLOTUS       N/A         40  38  92  CALM    29.96S
#KENNEWICK 3S   N/A         47  44  89  CALM    29.97S
#PATERSON       N/A         51  45  80  CALM    29.95R
#PROSSER DOT    N/A         47  45  93  CALM    29.96F
#SAGEMOOR 2W    N/A         46  44  93  N2      29.83R
#TOUCHET 2S     N/A         43  39  86  CALM    29.95R
#WEST PASCO     N/A         46  44  93  CALM    29.96R
$$

WAZ029-221110-
FOOTHILLS OF THE BLUES...WASHINGTON

CITY            SKY/WX      TMP DP  RH  WIND    PRES   REMARKS
WALLA WALLA AP  MOCLDY      46  40  79  E5      29.95S
#CLYDE 6NW      N/A         39  37  92  E1      29.96R
#DAYTON SCHOOL  N/A         41  33  73  N2      29.96F
#DELANEY DOT    N/A         35  33  92  CALM    29.97F
#LOWDEN 2SE     N/A         38  36  92  CALM    29.93S
#PLEASANT VIEW 1N/A         40  38  92  CALM    29.99S
#PRESCOTT       N/A         39  36  89  CALM    29.95S
#WHITMAN COLLEGEN/A         46  41  83  SW3     29.99F
#WAITSBURG 6SSE N/A         42  37  82  S3      29.96F
#WALLA WALLA 5E N/A         44  41  89  CALM    N/A
#WHITMAN MISSIONN/A         41  38  89  CALM    29.96S
$$

WAZ030-221110-
BLUE MOUNTAINS...WASHINGTON

CITY            SKY/WX      TMP DP  RH  WIND    PRES   REMARKS
#DIXIE 5SE      N/A         43  37  79  N1      29.86S
$$

ORZ009-041-WAZ024-221110-
COLUMBIA RIVER GORGE

CITY            SKY/WX      TMP DP  RH  WIND    PRES   REMARKS
HOOD RIVER AP   PTCLDY      48  46  93  CALM    29.99S
THE DALLES AP   MOCLDY      54  49  83  NW12    29.97S
#CELILO DOT     N/A         54  45  71  S2      N/A
#LYLE           N/A         53  50  89  CALM    29.99S
#MARYHILL       N/A         50  46  86  N5      N/A
#MURDOCK        N/A         54  48  80  NW7     29.94S
#RUFUS DOT      N/A         55  N/A N/A W8      N/A
#SMITHVILLE     N/A         54  49  83  N7      29.92S

$$

ORZ510-221110-
NORTH CENTRAL OREGON

CITY            SKY/WX      TMP DP  RH  WIND    PRES   REMARKS
#ANTELOPE       N/A         38  35  89  CALM    29.85S
#CHENOWITH 1W   N/A         46  45  96  W16     N/A    WCI 39
#COW CYN RST AREN/A         41  41  100 W1      N/A
#DUFUR          N/A         42  40  93  CALM    29.94S
#DUFUR 9E       N/A         47  41  79  W3      30.02S
#GRASS VALLEY 1SN/A         40  38  92  CALM    29.99R
#KENT DOT       N/A         40  36  85  SW2     N/A
#MAUPIN SCHOOL  N/A         46  42  86  CALM    30.03S
#MORO SCHOOL    N/A         46  45  96  CALM    29.96S
#SHANIKO 4NW    N/A         40  38  92  N5      29.95S
#TYGH VALLEY 2NEN/A         42  39  89  CALM    29.99R
#WAPANITIA AIRPON/A         42  39  89  NW1     29.99S
#WASCO DOT      N/A         42  40  93  E2      N/A
#WASCO 5NE      N/A         47  41  79  W2      29.96S
$$

ORZ511-221110-
CENTRAL OREGON

CITY            SKY/WX      TMP DP  RH  WIND    PRES   REMARKS
BEND AIRPORT    CLOUDY      43  37  79  CALM    29.98S
MADRAS AIRPORT  MOCLDY      N/A N/A N/A S3      30.00S
PRINEVILLE AP   MOCLDY      39  37  92  CALM    29.98S
REDMOND AIRPORT CLOUDY      43  36  76  NW3     29.97S
#ASHWOOD SCHOOL N/A         42  38  86  CALM    29.95S
#BEND 1SW       N/A         41  38  89  CALM    N/A
#BEND-AWBREY    N/A         42  38  86  CALM    29.98S
#BEND-KIM LN    N/A         42  38  86  CALM    29.93S
#CULVER         N/A         40  37  89  CALM    29.87F
#CULVER 8W      N/A         40  38  92  CALM    29.98S
#LAKE BILLY CHINN/A         43  N/A N/A CALM    30.07S
#MADRAS 4S      N/A         40  30  67  CALM    N/A
#POWELL BUTTE   N/A         42  39  89  CALM    29.92S
#PRINEVILLE     N/A         35  32  89  CALM    30.07S
#PRINEVILLE 3N  N/A         38  35  89  E2      29.96S
#WARM SPRINGS   N/A         45  39  79  CALM    29.84S

$$


ORZ509-221110-
EAST SLOPES OF OREGON CASCADES

CITY            SKY/WX      TMP DP  RH  WIND    PRES   REMARKS
SISTERS AWOS    N/A         41  37  86  CALM    N/A
#CAMP SHERMAN   N/A         38  35  89  CALM    30.03F
#LA PINE 4NW    N/A         30  26  85  CALM    30.03S
#LAVA BUTTE DOT N/A         38  35  89  CALM    N/A
#SISTERS ODOT   N/A         42  37  82  CALM    N/A
#SISTERS 3N     N/A         41  36  82  CALM    30.00S
#SUNRIVER       N/A         37  36  96  CALM    29.99S
#TUMALO 3W      N/A         41  36  82  CALM    29.87S
#WANOGA BUTTE D N/A         32  32  100 NE2     N/A

$$

ORZ044-221110-
LOWER COLUMBIA BASIN...OREGON

CITY            SKY/WX      TMP DP  RH  WIND    PRES   REMARKS
HERMISTON       CLOUDY      47  45  93  SE6     29.96S
#BOARDMAN SCHOOLN/A         52  46  80  CALM    29.96R
#BOARDMAN 8SW   N/A         51  46  83  SW2     29.97R
#ECHO 8SW       N/A         50  44  80  SW1     29.96F
#I-84 EX 198 DOTN/A         48  42  80  NE1     N/A
#IONE SCHOOL    N/A         48  30  49  CALM    29.97S
#UMATILLA       N/A         47  41  79  CALM    29.89S
$$

ORZ507-221110-
NORTHERN FOOTHILLS OF THE BLUES

CITY            SKY/WX      TMP DP  RH  WIND    PRES   REMARKS
PENDLETON AIRPT PTCLDY      43  41  93  N3      29.95S
#ADAMS 3WNW     N/A         43  40  89  CALM    29.94F
#ATHENA         N/A         42  39  89  CALM    29.98S
#CAYUSE         N/A         45  40  82  CALM    29.95S
#HELIX SCHOOL   N/A         45  42  89  CALM    29.95S
#HELIX 3N       N/A         44  41  89  S5      29.92S
#HOLDMAN 5SE    N/A         45  42  89  CALM    29.95S
#HOLDMAN 6E     N/A         45  42  89  CALM    29.76S
#M-F GROVE ELEM N/A         45  38  76  CALM    29.93S
#M-FREEWATER 5SEN/A         44  39  82  E2      29.95S
#PENDLETON DNTN N/A         47  39  74  CALM    29.95S
#PDT AQUATIC CTRN/A         46  40  79  CALM    29.93S
#PDT SUNRIDGE   N/A         44  42  93  CALM    29.97S
#PENDLETON 7NW  N/A         44  39  82  CALM    29.38F
#PILOT ROCK 1S  N/A         45  39  79  CALM    29.96S
#PILOT ROCK     N/A         44  40  86  CALM    29.97S
#TUTUILLA       N/A         44  41  89  CALM    30.00S
#UMAPINE 2E     N/A         40  38  92  CALM    29.93S
#WESTON SCHOOL  N/A         43  37  79  CALM    29.88S

$$

ORZ508-221110-
SOUTHERN FOOTHILLS OF THE BLUES

CITY            SKY/WX      TMP DP  RH  WIND    PRES   REMARKS
LEXINGTON       CLOUDY      48  43  83  CALM    29.99S HAZE
#AJAX           N/A         46  35  65  CALM    30.11F
#FOSSIL SCHOOL  N/A         42  39  89  CALM    29.91S
#HEPPNER EOC    N/A         45  41  86  CALM    29.90S
#HEPPNER 4NE    N/A         43  39  86  CALM    29.95F
#LEXINGTON 2SE  N/A         47  43  86  CALM    29.93S
#MIKKALO        N/A         48  43  83  CALM    30.06S
#OLEX 4N        N/A         48  44  86  SW2     29.95S
#RUGGS 5NE      N/A         43  40  89  CALM    30.11S
#RUGGS 2SW      N/A         45  40  82  W1      29.98F

$$

ORZ502-503-221110-
BLUE MOUNTAINS

CITY            SKY/WX      TMP DP  RH  WIND    PRES   REMARKS
MEACHAM         MOCLDY      31  29  92  CALM    29.93S
#BATTLE MTN DOT N/A         37  36  96  NW5     N/A
#GRANITE        N/A         34  28  78  CALM    29.86S
#GREENHORN 9SW  N/A         37  34  89  CALM    26.13S
#HEPPNER 15SE   N/A         36  34  92  CALM    29.86S
#LADD CYN SMT   N/A         38  35  89  NW5     N/A
#LADD CREEK ODOTN/A         38  35  89  CALM    N/A
#LONG CREEK HS  N/A         35  35  100 CALM    29.94F
#N POWDER DOT   N/A         40  35  82  N8      N/A
#PIKES PEAK     N/A         43  37  79  CALM    27.99S
#TOLLGATE       N/A         35  34  96  CALM    29.79S
#TROY SCHOOL    N/A         41  38  89  CALM    29.83S
#UKIAH          N/A         36  34  92  CALM    29.89S
#WESTON 4E      N/A         41  38  89  E1      29.93S
$$

ORZ505-221110-
JOHN DAY BASIN

CITY            SKY/WX      TMP DP  RH  WIND    PRES   REMARKS
JOHN DAY        CLOUDY      42  37  82  CALM    29.94S
#JOHN DAY KJDY  N/A         43  N/A N/A CALM    28.98R
#ANTELOPE 9ESE  N/A         48  41  77  CALM    N/A
#DAYVILLE SCHOOLN/A         41  36  82  CALM    29.92
#MITCHELL       N/A         44  42  93  CALM    30.13S
#MONUMENT HS    N/A         41  38  89  CALM    29.92F
#MT. VERNON 5SE N/A         39  35  85  CALM    29.88F
#SPRAY SCHOOL   N/A         46  N/A N/A CALM    N/A
#WINLOCK        N/A         44  40  86  CALM    29.92S
$$

ORZ506-221110-
OCHOCO AND JOHN DAY HIGHLANDS

CITY            SKY/WX      TMP DP  RH  WIND    PRES   REMARKS
#HORSE RIDGE DO N/A         40  36  85  NW5     N/A
#IZEE 6NW       N/A         32  30  92  CALM    N/A
#PAULINA ODOT   N/A         36  29  75  CALM    N/A
#PINE MTN OBS   N/A         31  30  96  CALM    N/A
#SENECA         N/A         36  N/A N/A CALM    N/A
#SENECA 9NW     N/A         37  32  82  CALM    29.94F
$$

ORZ049-221110-
GRANDE RONDE VALLEY

CITY            SKY/WX      TMP DP  RH  WIND    PRES   REMARKS
LA GRANDE       PTCLDY      40  36  85  NW10    29.94S
#COVE           N/A         37  37  100 CALM    29.96S
#COVE SCHOOL    N/A         36  34  92  CALM    29.95S
#COVE 6NW       N/A         37  34  89  W2      29.95S
#ELGIN 3N       N/A         34  32  92  CALM    30.35S
#ELGIN 1E       N/A         37  32  82  CALM    N/A
#IMBLER SCHOOL  N/A         37  35  92  N2      29.91S
#ISLAND CITY 4N N/A         45  44  96  CALM    30.02S
#LA GRANDE-LEFFEN/A         40  36  85  W6      30.34S
#UNION 1S       N/A         39  36  89  NE2     29.94S
$$

ORZ050-221110-
WALLOWA COUNTY

CITY            SKY/WX      TMP DP  RH  WIND    PRES   REMARKS
JOSEPH AIRPORT  CLOUDY      39  37  92  CALM    29.94S
#ENTERPRISE HS  N/A         37  35  92  CALM    29.85S
#IMNAHA SCHOOL  N/A         44  42  93  CALM    29.93S
#IMNAHA 10S     N/A         42  39  89  CALM    29.92S
#JOSEPH         N/A         39  38  96  CALM    30.13F
#JOSEPH 3N      N/A         36  31  82  CALM    29.96S
#JOSEPH 3W      N/A         36  36  100 CALM    30.29F
#LOSTINE        N/A         36  33  89  CALM    29.77F
#LOSTINE 3SE    N/A         37  36  96  CALM    29.96F
#MT HOWARD 8000 N/A         25  N/A N/A VRB2    29.86S
#PROMISE 1S     N/A         34  33  96  CALM    30.05F
#WALLOWA LAKE   N/A         38  37  96  CALM    29.93F
#WALLOWA SCHOOL N/A         39  37  92  CALM    29.92S



$$



USA.gov is the U.S. government's official web portal to all federal, state and local government web resources and services.